Find Starlink 30146

NORAD ID: 57442 Int'l Des: 2023-105 Owner: SPXS Country: US Constellation: starlink operational
LEOCIRCULAR

リアルタイム位置

3D地球を読み込み中...

Starlink 30146について

説明を読み込み中...

次回通過

Passes for default location (London). Set your location on the main map for personalized predictions.

高度履歴

Loading altitude history...

軌道要素

1 57442U 23105N 26125.85960418 .00001221 00000-0 53890-4 0 9995
2 57442 43.0054 297.1194 0001488 259.8830 100.1854 15.27578133154381
Epoch: May 5, 2026 • Age: 6 hours

現在のステータス

高度 482.8 km
速度 7.63 km/s
衛星直下点 17.61°N, 46.08°E
打ち上げ日 Jul 24, 2023
運用期間 2.7 years
タイプ internet

技術仕様

分類 Payload
質量 730.00 kg
乾燥質量 700.00 kg
総質量 730.00 kg
長さ 0.30 m
直径 4.10 m
スパン 29.00 m
形状 Box + pan
製造者 SPXS
バスタイプ Starlink V2M
フェーズステータス In Orbit
所有者/国 SPXS/US

Most Searched